Lid_Strength_Index
-1 -1 -0 -1 -1 -1 -0 0 2 4 3 1 1 -1 -1 -1 -1 -2 -2 -0 1 2 3 2 2 2 2 2 3 2 2 1 1 -0 1 1 1 1
-0 -1 -0 -0 -0 -0 -0 0 0 2 4 1 1 -1 -1 -1 -1 -2 -1 1 1 2 3 3 3 3 3 3 3 2 2 1 1 0 -0 0 1 1
-1 -0 -0 -1 0 0 -0 0 1 1 3 1 0 -1 -1 -0 -1 -1 -1 -1 -1 2 2 3 4 4 4 3 3 3 2 1 1 0 0 -0 1 1
-0 -0 0 -0 -0 -0 0 -0 0 0 1 3 1 1 0 -1 -1 -0 -1 -1 -1 1 3 4 4 5 5 4 4 3 3 3 2 1 1 -0 1 1
-0 -0 -0 -0 0 0 0 0 0 0 0 1 2 0 0 -0 -0 -0 -0 -1 -1 0 3 4 4 4 5 4 4 5 5 5 4 3 2 1 1 -0
-0 -0 -0 -0 0 0 0 0 0 1 1 1 1 1 1 -0 0 1 1 -0 0 -1 1 3 4 4 4 4 4 5 5 5 5 4 4 3 3 1
-0 -0 -0 -0 2 1 0 0 0 1 1 1 2 1 1 1 1 1 1 1 0 -0 0 -0 2 2 4 4 4 4 4 5 4 4 5 5 4 3
0 -0 -0 0 1 3 3 3 1 1 2 2 2 2 2 1 1 1 2 2 3 -1 0 1 0 1 1 3 4 6 5 5 4 3 4 4 4 4
0 0 0 -0 0 -0 2 4 4 4 4 1 2 2 2 1 1 1 1 2 2 1 3 4 0 1 2 5 6 6 5 4 4 3 4 5 5 5
-0 -0 0 0 -0 0 -0 0 -0 -0 -0 0 0 0 0 -0 0 1 1 1 0 1 3 5 3 3 3 4 6 6 6 5 4 4 4 5 6 6
-0 -0 -0 0 2 5 0 1 1 0 1 5 4 4 5 5 4 1 2 3 3 2 2 2 3 3 6 6 5 7 6 6 6 5 5 5 6 7
0 -0 4 1 4 7 0 1 2 1 0 0 0 2 5 2 7 1 1 3 3 4 1 3 2 7 9 7 4 5 6 8 7 7 6 6 7 4
1 1 0 6 8 8 8 0 1 0 1 1 1 1 0 0 0 1 -0 1 2 3 2 2 6 8 8 6 4 3 4 5 3 5 8 8 8 8
1 1 0 8 11 10 8 6 8 7 0 1 1 1 1 1 0 -0 -0 -0 0 1 3 3 6 8 7 5 6 6 4 4 2 2 2 7 8 8
0 2 8 9 10 8 10 9 9 1 1 2 2 2 1 1 -0 2 2 2 4 4 3 4 4 6 5 7 6 5 4 3 2 2 2 3 4 4
5 2 3 4 7 5 4 2 1 1 1 2 2 1 1 1 1 2 3 5 5 5 5 4 4 5 8 6 5 4 4 3 3 3 3 4 2 3
8 1 1 1 2 1 1 1 1 1 1 1 2 2 1 1 1 1 3 5 6 6 7 6 5 5 6 6 6 5 4 3 3 3 4 4 3 3
5 2 2 2 2 2 2 2 1 2 1 1 1 1 1 2 2 3 4 5 5 5 7 7 7 8 8 6 5 5 3 4 4 4 4 5 4 4
4 2 2 2 2 2 2 1 2 1 0 1 1 1 1 1 2 4 4 4 4 4 5 5 7 8 9 8 5 11 3 4 5 5 4 4 5 5
2 2 2 2 2 2 2 2 2 1 1 1 1 1 1 2 2 4 4 4 4 4 6 5 6 7 8 7 6 6 12 4 5 4 4 4 7 8
6 6 6 6 6 5 4 2 1 2 1 1 1 1 2 2 2 3 3 8 6 4 7 6 5 7 5 5 7 7 7 10 8 5 4 5 5 7
7 6 7 7 7 8 8 7 5 3 2 2 2 2 2 2 2 2 3 4 5 5 4 2 6 6 6 6 7 5 5 7 9 10 10 10 8 7
7 8 8 10 10 9 9 10 8 5 3 3 2 2 2 2 1 1 2 3 4 4 2 5 6 6 6 7 6 5 4 5 6 7 9 11 11 11